Wind_Speed
22 24 19 19 26 22 21 20 19 18 17 17 17 17 17 17 19 20 21 22 21 20 19 17 15 14 8 8 12 7 4 2 8 13 13 11 9 10 13 13 12 14 8 11 3 15 3
20 21 22 20 18 25 23 22 20 19 18 17 17 16 18 17 19 20 21 21 21 19 17 15 12 9 6 11 7 3 3 4 7 13 13 13 8 10 11 14 10 2 4 8 10 5 2
21 22 22 23 20 21 26 24 21 20 19 18 17 16 18 17 18 20 21 20 19 17 15 12 10 5 10 18 12 4 5 7 5 11 11 15 11 9 3 11 6 10 12 8 2 3 2
23 23 21 23 24 20 22 25 23 21 20 18 17 16 17 17 18 19 20 19 17 15 13 10 7 6 7 11 12 18 13 14 14 8 11 12 8 10 9 9 4 4 7 3 2 9 10
25 25 22 21 22 23 21 21 24 22 20 19 18 16 16 16 17 19 18 17 15 13 10 7 5 8 9 3 12 16 14 15 4 4 7 4 4 5 8 7 1 3 8 15 9 14 6
26 26 23 22 22 22 23 20 20 22 21 19 18 15 15 15 17 18 17 15 13 12 7 9 12 10 9 11 9 11 6 4 7 6 4 4 5 7 6 7 8 13 14 12 9 11 13
29 26 27 23 23 23 24 22 20 19 21 20 18 15 15 14 15 15 13 11 6 5 10 10 9 7 7 6 8 9 16 8 10 9 5 7 6 9 12 14 11 6 7 13 13 10 12
30 30 29 29 26 24 23 25 21 20 20 20 18 15 14 13 14 12 7 7 7 8 10 18 19 18 16 9 8 13 14 8 12 8 2 9 10 6 9 15 18 13 6 9 11 10 10
33 32 31 30 30 27 25 24 23 23 21 20 18 16 13 11 12 11 12 18 14 18 6 15 20 17 14 16 14 13 11 13 5 4 8 7 8 22 19 22 17 11 8 9 11 7 9
33 34 33 31 31 30 28 25 24 23 22 20 19 16 13 9 6 8 12 12 16 10 5 10 14 13 14 8 13 20 19 13 7 5 12 5 15 21 22 5 7 5 9 10 15 11 9
36 35 35 34 32 31 29 26 23 25 23 21 20 17 14 13 11 8 8 3 4 6 4 10 15 8 14 15 6 14 6 10 12 4 11 15 11 20 18 4 3 4 15 17 11 9 4
35 36 37 35 34 33 30 28 24 25 26 23 21 18 14 9 11 15 6 10 4 5 7 6 10 12 20 15 13 8 12 10 7 10 13 13 13 25 2 3 0 14 13 12 9 9 6
38 37 37 38 36 35 32 30 25 24 28 25 24 21 21 11 7 7 7 5 5 7 5 10 16 15 16 14 15 10 12 17 12 9 8 0 12 4 8 8 5 7 8 3 5 6 5
41 36 39 38 38 36 33 32 27 25 28 28 24 21 21 18 15 5 7 6 11 12 21 2 14 15 19 16 14 12 14 15 18 17 10 9 10 11 9 5 4 17 1 2 3 3 6
42 38 36 40 39 37 35 33 28 26 25 27 24 19 14 21 18 9 8 12 11 10 17 10 12 16 17 18 9 14 15 16 16 17 15 1 2 10 16 3 11 11 4 3 6 3 2
48 42 39 38 42 39 36 34 29 27 25 31 20 14 19 22 21 12 9 19 16 23 12 10 15 15 15 17 13 11 13 13 17 17 9 6 6 16 21 5 5 6 6 3 2 2 4
45 44 38 32 44 41 38 34 31 29 27 30 18 6 11 25 22 8 14 18 22 20 16 11 14 14 16 14 14 12 9 10 16 8 2 7 13 11 8 8 8 5 7 6 8 4 1
44 41 39 36 42 42 40 37 34 30 30 34 7 8 30 37 10 10 15 21 22 23 12 11 15 15 13 14 14 16 15 13 9 7 8 12 5 4 10 2 5 10 11 8 3 6 3
39 39 36 44 39 45 41 39 37 33 38 20 6 6 30 28 12 13 16 24 25 23 19 15 15 12 13 14 12 14 9 5 6 7 3 4 4 5 9 7 8 8 12 9 8 2 5
39 38 36 40 28 45 44 42 39 36 41 21 6 8 4 10 11 21 23 21 25 23 20 14 14 15 13 13 9 9 9 4 2 1 3 4 5 9 6 11 4 6 10 11 10 3 4
42 41 40 36 37 46 45 43 41 38 42 23 3 10 9 10 16 17 20 20 26 25 20 15 17 17 13 10 11 11 11 6 4 3 1 3 8 12 14 14 12 8 13 7 10 10 10
34 36 35 37 41 46 47 42 41 40 40 21 6 7 12 7 19 22 21 26 26 26 19 21 14 18 16 12 13 10 11 8 7 7 8 5 6 5 8 10 13 10 14 15 14 15 15
40 37 38 36 45 46 46 43 41 40 43 9 23 8 3 13 21 20 23 24 26 23 19 22 16 14 15 9 4 7 3 12 8 11 10 7 3 2 2 6 7 5 10 15 16 15 11
40 29 31 36 42 41 40 40 42 38 49 21 25 4 4 10 18 24 24 24 26 22 18 14 9 18 7 12 12 12 11 8 5 3 8 6 5 2 1 1 1 9 3 5 5 8 9
40 34 33 38 39 38 38 37 38 36 50 26 25 5 4 6 18 23 27 21 21 17 9 11 6 6 14 9 5 4 2 3 1 4 4 4 5 2 2 4 7 12 2 2 1 3 11
42 37 37 35 36 35 34 36 37 39 39 37 26 15 6 5 16 29 25 21 14 9 4 1 6 8 5 3 3 4 4 6 7 7 1 2 5 3 3 3 5 1 6 2 2 2 8
42 43 39 37 35 35 35 36 38 34 40 33 18 28 11 3 9 24 19 16 20 10 4 8 4 4 3 3 2 2 3 4 5 6 4 2 1 4 3 2 5 3 6 1 3 3 6
42 40 36 34 34 34 35 36 40 39 33 38 30 34 10 3 14 20 17 12 13 13 7 7 8 2 3 3 3 2 2 3 2 8 7 7 6 3 2 2 6 7 6 2 4 5 7
39 37 35 34 34 35 36 34 39 38 37 35 18 31 27 10 3 13 13 17 10 8 10 13 3 9 5 4 2 3 2 2 2 3 10 4 5 4 7 4 5 5 8 6 6 6 7
Wind_Direction
269 264 266 263 258 265 269 272 278 284 291 297 300 304 309 307 311 314 317 317 316 314 312 315 321 324 334 253 256 249 350 346 192 195 223 247 248 246 252 250 252 229 265 319 294 162 92
271 270 271 263 262 259 265 269 274 278 284 292 299 303 306 305 308 313 315 315 313 311 311 313 320 324 271 268 282 163 156 105 181 204 232 257 262 278 292 303 262 248 15 31 9 101 134
274 272 270 263 263 260 257 265 269 273 278 286 294 300 302 304 306 311 312 312 310 309 308 310 311 309 267 248 279 318 213 238 254 215 240 249 260 272 269 285 16 102 58 2 242 168 215
271 266 271 268 256 261 262 256 263 268 272 278 286 295 297 299 303 308 310 309 307 304 302 305 289 279 260 271 258 255 257 243 250 241 238 271 305 270 300 351 274 142 95 304 218 217 218
266 265 266 268 264 257 263 254 257 263 267 273 280 290 293 296 302 307 309 306 301 295 291 279 282 222 272 290 233 239 229 243 145 217 223 281 260 242 233 242 72 108 232 225 220 223 178
261 262 257 263 264 258 258 259 253 257 262 265 273 284 288 293 301 308 308 302 287 285 282 251 262 275 254 242 210 234 206 232 217 155 191 237 218 222 210 208 211 209 225 217 229 192 232
256 256 253 254 256 261 255 258 248 255 254 260 266 276 280 286 296 305 311 304 239 194 232 237 211 249 311 358 289 228 242 196 225 190 202 247 213 213 224 220 236 256 251 224 203 182 224
247 249 250 248 251 256 260 251 253 248 247 252 257 266 273 282 295 295 287 256 3 7 295 239 249 257 271 283 277 214 204 231 205 224 83 251 332 287 248 239 247 283 297 231 159 173 222
248 245 246 249 249 252 255 257 248 242 245 243 247 255 262 274 290 275 234 248 281 347 269 279 211 232 235 223 242 230 185 230 237 221 235 244 188 280 260 244 243 265 111 314 3 288 223
244 245 244 248 247 245 251 252 247 248 239 236 236 243 249 262 263 248 248 264 253 287 279 250 192 219 227 233 235 242 194 226 237 183 77 341 272 263 280 263 277 6 330 195 168 250 220
247 242 243 244 244 241 243 247 243 241 239 229 229 233 233 225 324 238 29 68 156 210 281 158 180 183 196 207 230 217 197 204 250 8 176 200 308 292 255 204 43 175 244 267 259 277 188
246 244 238 238 240 241 241 243 243 236 234 226 220 224 219 230 243 243 347 321 183 228 238 178 151 206 209 205 232 222 200 225 246 210 248 152 204 249 82 284 38 174 224 241 271 296 218
244 243 237 230 232 239 240 241 240 233 230 223 214 215 214 209 221 236 241 269 207 231 223 184 178 190 218 201 224 216 197 204 218 217 223 66 241 222 183 213 180 228 268 267 33 319 224
241 240 239 231 227 231 234 235 234 229 226 219 209 211 221 223 241 282 203 213 229 202 240 70 192 194 209 215 213 204 228 210 209 231 239 166 238 248 199 253 93 320 282 128 344 246 323
238 236 237 231 222 223 229 227 227 223 221 207 196 203 226 227 210 223 216 213 205 242 194 230 201 201 207 222 213 208 224 213 213 221 249 256 127 4 310 243 154 216 264 106 284 105 315
238 233 234 232 220 220 221 221 218 217 214 195 176 202 226 209 200 215 221 228 223 245 289 196 227 212 210 216 189 215 205 228 224 211 167 128 31 289 252 233 218 262 348 283 198 289 263
230 229 228 238 215 215 213 214 210 208 204 194 187 210 222 185 170 213 220 217 232 246 250 274 225 224 224 214 190 230 223 213 223 150 253 150 169 200 164 211 254 176 242 241 263 269 101
225 222 219 233 212 211 210 208 205 202 197 188 192 211 162 155 182 210 219 215 229 240 236 244 272 246 221 229 205 225 213 216 205 231 205 226 304 265 224 342 354 322 299 231 185 271 175
220 221 225 228 213 209 207 205 202 197 196 168 180 180 159 168 202 208 205 225 229 234 232 207 242 246 250 239 212 211 215 31 99 203 242 243 231 269 281 220 199 237 251 248 275 111 236
215 217 218 227 232 203 203 201 200 196 199 180 176 178 187 215 229 199 199 211 224 238 236 226 227 239 240 235 211 208 215 122 120 120 57 324 248 250 243 261 344 235 239 252 230 156 239
217 218 217 231 237 203 201 199 201 198 198 192 214 209 171 193 206 217 197 212 211 221 224 244 233 221 230 216 233 216 213 119 149 113 179 241 245 261 264 274 286 287 297 265 256 250 235
208 210 212 218 233 201 200 199 201 200 196 200 194 214 167 205 190 208 207 215 209 220 195 225 235 214 210 219 229 202 212 156 175 170 210 200 247 288 298 300 292 279 278 281 274 277 274
205 211 208 224 201 196 200 198 200 198 191 193 216 262 232 204 189 193 208 211 219 216 212 204 210 231 214 223 184 68 241 175 203 168 199 193 235 138 249 347 352 321 250 252 263 266 263
194 194 204 193 190 195 197 197 200 200 201 213 202 231 247 198 186 203 202 208 214 207 219 201 210 218 122 113 92 75 66 72 102 100 196 187 216 87 153 303 294 243 45 349 334 317 309
191 197 199 187 190 193 195 197 199 197 200 211 211 218 241 230 187 189 200 210 219 217 180 270 142 108 151 134 112 99 76 41 209 153 171 221 132 140 157 213 277 305 147 358 21 336 35
187 193 192 191 193 194 194 196 203 204 193 219 244 262 265 221 208 189 195 192 207 175 142 149 134 140 176 87 103 179 175 207 176 145 354 165 155 157 170 224 214 127 111 58 353 211 48
184 188 189 193 194 195 194 196 201 199 214 221 238 242 265 227 240 189 197 184 204 138 113 143 204 129 336 85 135 147 209 216 181 153 176 93 311 180 153 221 291 84 116 120 221 69 24
180 184 189 193 197 197 195 199 200 198 213 213 231 239 261 273 210 193 190 196 209 151 123 255 188 165 138 126 127 149 113 208 250 181 161 171 162 184 161 154 263 134 131 157 56 11 17
179 184 190 197 199 196 194 199 195 204 202 209 235 232 232 245 115 83 77 57 49 1 128 188 175 157 166 134 73 77 116 32 51 195 210 193 187 178 172 204 146 110 65 67 36 23 20
Height
810 810 811 811 813 814 816 817 817 817 817 817 816 815 814 813 811 809 806 804 802 799 797 795 792 790 788 783 766 758 758 757 759 762 763 757 757 755 759 748 744 749 744 744 741 752 751
805 806 806 807 808 810 812 813 814 815 815 815 814 813 812 810 810 808 805 802 800 797 796 794 792 790 791 783 757 757 758 758 759 762 760 756 753 749 751 748 746 739 743 747 749 750 755
801 802 802 802 804 805 807 809 810 811 812 812 812 811 810 809 807 806 803 800 798 795 794 793 791 791 787 771 756 756 757 757 756 756 757 752 752 752 748 753 741 744 761 757 757 755 761
796 797 797 797 799 800 802 804 806 808 809 809 809 808 808 806 805 803 801 798 795 793 792 791 790 791 777 759 758 756 755 754 752 752 754 752 752 751 753 752 751 757 763 780 754 755 756
791 791 792 793 794 796 797 798 801 804 805 807 807 806 805 804 804 801 798 795 793 791 790 790 789 788 769 756 755 751 752 749 748 751 752 754 755 757 757 768 772 772 788 778 763 749 754
785 786 787 789 790 792 793 793 796 799 801 803 804 803 803 802 802 800 797 794 791 789 788 791 787 787 763 752 745 745 745 748 748 749 754 756 757 764 761 773 794 779 774 764 762 751 750
779 780 781 783 785 787 789 790 790 793 797 800 801 801 800 800 799 797 796 795 791 788 787 770 761 759 747 746 747 746 743 745 745 749 760 755 766 774 763 756 755 756 759 763 749 741 749
770 774 775 777 779 781 783 786 787 789 792 795 798 799 798 798 798 796 795 793 778 782 776 759 758 755 751 751 750 740 740 747 748 757 757 765 774 761 753 754 753 750 757 756 743 741 748
764 765 768 770 773 775 778 781 782 784 787 790 794 796 796 795 796 793 792 788 784 783 775 751 746 750 748 748 748 738 737 741 749 762 761 774 786 771 760 754 753 746 768 767 768 754 745
754 758 760 763 767 769 772 774 778 780 783 787 789 792 793 795 797 788 786 784 785 787 782 751 744 743 743 743 747 730 729 738 744 761 768 782 768 772 756 751 744 771 763 758 768 781 776
745 748 752 756 760 763 765 768 772 775 779 782 786 788 790 792 791 784 782 780 783 786 794 728 737 730 734 744 730 734 728 733 750 751 759 787 773 766 756 751 746 773 761 761 749 755 766
735 739 743 747 753 757 760 762 766 769 774 777 781 785 788 788 790 782 783 783 784 791 788 743 729 737 740 739 735 727 734 734 732 748 747 767 762 756 748 744 743 750 759 750 751 761 784
724 728 733 736 742 750 753 757 760 763 768 772 776 780 783 784 782 780 784 785 792 784 731 738 737 738 741 743 740 737 743 748 755 766 762 758 753 739 740 749 743 749 757 784 826 817 785
714 718 723 728 733 739 746 751 755 758 762 767 773 777 778 780 780 783 782 788 783 746 743 719 729 735 746 736 739 739 743 748 741 744 751 772 778 749 739 746 776 774 764 810 814 805 780
703 708 713 718 724 729 738 743 749 754 757 762 770 774 776 773 778 782 780 782 761 736 723 727 730 740 742 734 735 740 743 743 737 737 756 764 770 761 743 737 754 766 764 752 770 779 788
691 697 703 707 715 721 727 736 742 748 752 758 764 770 766 770 775 780 777 766 746 726 717 719 739 732 743 737 741 740 741 731 732 725 732 761 791 782 753 744 743 751 745 771 767 797 798
678 685 692 697 704 712 719 729 735 742 747 755 762 761 750 764 773 773 758 752 745 723 719 728 731 731 730 732 732 739 738 728 723 731 732 750 778 763 750 754 752 756 761 757 757 764 790
667 674 680 688 694 703 711 719 728 735 743 751 753 750 740 755 765 754 748 741 735 729 718 723 724 722 725 723 732 737 738 728 721 727 745 738 744 760 752 733 734 742 750 749 778 782 775
656 665 671 679 685 694 703 712 720 728 733 740 741 740 743 742 746 742 743 738 730 728 723 724 730 721 715 723 733 727 726 730 724 731 741 737 752 773 762 747 741 752 747 746 749 761 778
647 655 662 671 676 685 694 703 712 720 727 734 733 735 741 740 727 732 737 733 731 720 718 714 720 717 718 724 716 730 728 737 735 735 750 744 747 758 773 757 744 749 750 744 750 782 779
638 646 654 662 669 678 686 694 704 713 719 729 721 711 713 724 726 722 723 723 726 723 714 715 717 718 720 732 726 729 725 740 740 752 745 746 760 752 746 741 740 748 747 743 750 751 769
630 638 646 655 661 670 678 687 697 706 715 722 713 700 700 701 717 722 720 715 715 711 711 720 717 714 712 725 724 729 725 735 742 745 746 744 759 757 759 749 747 757 751 746 746 746 744
623 631 638 645 653 663 672 679 690 700 711 705 705 697 701 705 707 712 701 707 706 701 703 705 708 712 717 714 707 714 709 716 722 738 746 747 759 767 776 765 769 783 759 751 746 739 742
615 624 632 637 650 658 666 675 684 694 700 699 695 698 698 692 694 689 699 700 700 698 704 697 701 709 711 709 713 717 722 725 725 730 733 746 755 768 779 792 797 751 734 738 746 741 736
611 620 628 637 646 655 663 670 679 687 692 697 698 699 694 697 680 691 691 693 691 691 699 712 702 699 704 711 732 746 754 759 747 739 742 738 758 778 791 779 760 748 740 746 749 753 742
607 617 625 634 643 651 660 668 673 681 688 698 696 700 692 686 671 668 682 686 695 696 707 717 706 702 705 716 733 746 755 743 747 753 747 747 749 770 782 783 795 751 746 743 744 765 748
603 614 623 632 640 649 658 665 671 676 685 694 694 698 699 687 669 666 671 679 681 697 715 715 722 717 713 731 752 743 744 728 744 757 781 773 776 782 780 784 767 738 744 746 768 772 755
601 611 620 629 638 646 655 662 670 677 684 692 692 694 698 684 666 660 665 675 675 683 716 725 720 714 718 733 737 736 750 737 736 735 758 767 769 785 771 792 789 741 748 761 759 753 755
601 610 620 628 636 644 651 657 666 676 683 691 689 690 693 697 668 668 676 673 679 681 686 707 698 704 707 714 727 732 755 759 743 748 726 748 742 753 757 761 744 741 748 750 753 757 759